TimeEDT,TemperatureF,Dew PointF,Humidity,Sea Level PressureIn,VisibilityMPH,Wind Direction,Wind SpeedMPH,Gust SpeedMPH,PrecipitationIn,Events,Conditions,WindDirDegrees,DateUTC
12:53 AM,69.1,64.9,87,30.10,10.0,North,6.9,-,N/A,,Overcast,10,2013-10-14 04:53:00
1:51 AM,69.8,64.4,83,30.08,10.0,North,8.1,-,N/A,,Overcast,10,2013-10-14 05:51:00
1:53 AM,69.1,64.9,87,30.09,10.0,North,9.2,-,N/A,,Overcast,10,2013-10-14 05:53:00
2:53 AM,68.0,64.9,90,30.07,10.0,North,9.2,-,N/A,,Overcast,10,2013-10-14 06:53:00
3:16 AM,68.0,64.4,88,30.06,10.0,NNE,8.1,-,N/A,,Overcast,20,2013-10-14 07:16:00
3:53 AM,68.0,64.9,90,30.06,10.0,North,9.2,18.4,N/A,,Overcast,10,2013-10-14 07:53:00
4:53 AM,69.1,64.9,87,30.08,10.0,NNE,8.1,-,N/A,,Overcast,20,2013-10-14 08:53:00
5:53 AM,69.1,64.9,87,30.09,10.0,NNE,9.2,-,N/A,,Overcast,20,2013-10-14 09:53:00
6:09 AM,69.8,64.4,83,30.09,10.0,NNE,10.4,-,N/A,,Overcast,20,2013-10-14 10:09:00
6:34 AM,69.8,64.4,83,30.09,10.0,NNE,9.2,-,N/A,,Overcast,20,2013-10-14 10:34:00
6:53 AM,69.1,64.9,87,30.09,10.0,NNE,13.8,19.6,N/A,,Overcast,30,2013-10-14 10:53:00
7:53 AM,69.1,64.9,87,30.10,10.0,NNE,10.4,-,N/A,,Overcast,20,2013-10-14 11:53:00
8:26 AM,69.8,64.4,83,30.10,10.0,NNE,12.7,18.4,N/A,,Overcast,30,2013-10-14 12:26:00
8:53 AM,70.0,64.9,84,30.12,10.0,NNE,15.0,-,N/A,,Overcast,20,2013-10-14 12:53:00
9:07 AM,69.8,64.4,83,30.12,10.0,NNE,12.7,18.4,N/A,,Overcast,30,2013-10-14 13:07:00
9:42 AM,71.6,64.4,78,30.12,10.0,NNE,13.8,18.4,N/A,,Overcast,20,2013-10-14 13:42:00
9:53 AM,71.1,64.9,81,30.13,10.0,NNE,12.7,20.7,N/A,,Overcast,20,2013-10-14 13:53:00
10:53 AM,72.0,64.9,78,30.13,10.0,NE,15.0,25.3,N/A,,Overcast,40,2013-10-14 14:53:00
11:53 AM,73.0,64.0,73,30.13,10.0,NE,15.0,-,N/A,,Overcast,50,2013-10-14 15:53:00
12:53 PM,75.0,64.0,69,30.11,10.0,NNE,16.1,21.9,N/A,,Overcast,30,2013-10-14 16:53:00
1:01 PM,75.2,64.4,69,30.10,10.0,NNE,15.0,-,N/A,,Overcast,20,2013-10-14 17:01:00
1:53 PM,77.0,64.9,66,30.09,10.0,NE,11.5,19.6,N/A,,Overcast,40,2013-10-14 17:53:00
2:53 PM,77.0,64.0,64,30.07,10.0,NNE,12.7,-,N/A,,Partly Cloudy,20,2013-10-14 18:53:00
3:53 PM,75.9,64.0,67,30.07,10.0,NNE,15.0,24.2,N/A,,Scattered Clouds,30,2013-10-14 19:53:00
4:03 PM,73.4,64.4,73,30.07,10.0,NNE,13.8,-,N/A,,Mostly Cloudy,20,2013-10-14 20:03:00
4:46 PM,73.4,64.4,73,30.07,10.0,North,11.5,23.0,N/A,,Scattered Clouds,10,2013-10-14 20:46:00
4:53 PM,73.0,64.0,73,30.07,10.0,NNE,11.5,24.2,N/A,,Scattered Clouds,20,2013-10-14 20:53:00
5:22 PM,71.6,64.4,78,30.07,10.0,NNE,13.8,21.9,N/A,,Mostly Cloudy,30,2013-10-14 21:22:00
5:39 PM,71.6,64.4,78,30.08,10.0,North,9.2,-,N/A,,Mostly Cloudy,10,2013-10-14 21:39:00
5:53 PM,71.1,64.0,78,30.09,10.0,North,10.4,-,N/A,,Overcast,10,2013-10-14 21:53:00
6:39 PM,69.8,64.4,83,30.10,10.0,North,15.0,21.9,N/A,,Overcast,10,2013-10-14 22:39:00
6:53 PM,69.1,64.0,84,30.10,10.0,NNE,11.5,-,N/A,,Overcast,20,2013-10-14 22:53:00
7:31 PM,69.8,64.4,83,30.10,10.0,NNE,11.5,-,N/A,,Overcast,30,2013-10-14 23:31:00
7:53 PM,69.1,63.0,81,30.10,10.0,NNE,9.2,23.0,N/A,,Overcast,30,2013-10-14 23:53:00
8:53 PM,68.0,63.0,84,30.12,10.0,NNE,13.8,23.0,N/A,,Overcast,30,2013-10-15 00:53:00
9:53 PM,66.9,62.1,84,30.12,10.0,NNE,10.4,-,N/A,,Overcast,20,2013-10-15 01:53:00
10:53 PM,66.9,62.1,84,30.14,10.0,NNE,6.9,-,N/A,,Overcast,30,2013-10-15 02:53:00
11:53 PM,66.9,61.0,81,30.13,10.0,NNE,9.2,-,N/A,,Overcast,20,2013-10-15 03:53:00